Flag for U.S.A. Weather past 2 weeks in Scottsdale, Arizona, U.S.A.

Now
48 °F

Sunny.


Feels Like: 48 °F
Forecast: 45 / 67 °F
Wind: No wind

Location: Scottsdale Airport

Current Time: Mar 5, 2015 at 8:35:21 AM

Latest Report: Mar 5, 2015 at 7:53 AM


Visibility: 10 mi

Pressure: 30.25 "Hg

Humidity: 48%

Dew point: 29 °F

Location of ScottsdaleLocation

Historic Weather in Scottsdale — Graph

°F

Scottsdale temperature yesterday

Maximum temperature yesterday: 67 °F (at 2:53 PM)
Minimum temperature yesterday: 44 °F (at 4:53 AM)
Average temperature yesterday: 56 °F

Past Weeks' High & Low Weather Summary

 TemperatureHumidityPressure
High76 °F (Feb 18, 2:53 PM)93% (Mar 3, 6:53 AM)30.22 "Hg (Mar 3, 6:53 AM)
Low44 °F (Mar 4, 4:53 AM)10% (Feb 18, 2:53 PM)29.59 "Hg (Feb 27, 4:53 PM)
Average60 °F47%29.90 "Hg
* Reported Feb 18 6:53 AM — Mar 5 6:53 AM, Scottsdale, Weather by CustomWeather, © 2015

Note: Actual official high and low records may vary slightly from our data, if they occured in-between our weather recording intervals... More about our weather records

Advertising

Scottsdale weather history for previous 24 hours

 ConditionsComfort  
Time TempWeatherWind HumidityBarometerVisibility
6:53 AM
Thu, Mar 5
44 °FSunny.No wind53%30.22 "Hg10 mi
5:53 AM52 °FClear.3 mph30%30.19 "Hg10 mi
4:53 AM50 °FClear.3 mph33%30.17 "Hg10 mi
3:53 AM51 °FClear.3 mph33%30.16 "Hg10 mi
2:53 AM51 °FClear.8 mph36%30.16 "Hg10 mi
1:53 AM55 °FClear.5 mph30%30.15 "Hg10 mi
12:53 AM58 °FClear.6 mph25%30.14 "Hg10 mi
11:53 PM
Wed, Mar 4
53 °FClear.No wind56%30.14 "Hg10 mi
10:53 PM55 °FClear.No wind53%30.13 "Hg10 mi
9:53 PM58 °FClear.No wind43%30.11 "Hg10 mi
8:53 PM60 °FClear.No wind38%30.09 "Hg10 mi
7:53 PM62 °FClear.No wind34%30.06 "Hg10 mi
6:53 PM64 °FClear.3 mph32%30.03 "Hg10 mi
5:53 PM67 °FSunny.7 mph22%30.01 "Hg10 mi
4:53 PM67 °FSunny.5 mph23%29.98 "Hg10 mi
3:53 PM67 °FPassing clouds.3 mph22%29.97 "Hg10 mi
2:53 PM67 °FSunny.3 mph26%29.97 "Hg10 mi
1:53 PM65 °FSunny.No wind29%29.98 "Hg10 mi
12:53 PM63 °FSunny.5 mph35%29.98 "Hg10 mi
11:53 AM61 °FSunny.3 mph42%29.99 "Hg10 mi
10:53 AM59 °FSunny.5 mph49%29.99 "Hg10 mi
9:53 AM54 °FSunny.No wind62%29.99 "Hg10 mi
8:53 AM51 °FSunny.No wind71%29.97 "Hg10 mi
Weather by CustomWeather, © 2015

See weather overviewHow to use our weather pages